STARLINK-5938 (55960 NORAD) Tracking and Keplerian Element Data

This shows tracking and keplerian element data for the satellite.

Feedback or suggestion? Click here.




ElementValue
Catalog55960
NameSTARLINK-5938
Epoch Orbit842
Epoch Day127.05657633
Epoch Year2023
RAAN39.6632
Inclination69.9989
Eccentricity0.0003633
Argument of Perigee261.4305
Mean Anonmoly98.6479
Mean Motion15.69931311
Decay Rate6.47E-06
L11 55960U 23037AY 23127.05657633 .00000647 00000+0 71464-5 0 9993
L22 55960 69.9989 39.6632 0003633 261.4305 98.6479 15.69931311 8428



Live tracking and technical data element details for STARLINK-5938 (NORAD 55960). STARLINK-5938 can be tracked NOW for your location showing map with azimuth and elevation plus other details from your city location.







IsCatalogInMostPopularTable: catalog: 55960, numindb: 9
Update: records affected: 1



GetName: 55960 STARLINK-5938

Hit Count: updated at: Tue, 06 Jun 2023 02:52:07 GMT